TimeEDT,TemperatureF,Dew PointF,Humidity,Sea Level PressureIn,VisibilityMPH,Wind Direction,Wind SpeedMPH,Gust SpeedMPH,PrecipitationIn,Events,Conditions,WindDirDegrees,DateUTC
12:15 AM,37.4,30.2,75,30.03,10.0,NNW,5.8,-,N/A,,Overcast,330,2012-11-03 04:15:00
12:53 AM,37.9,30.0,73,30.04,10.0,NW,5.8,-,N/A,,Overcast,320,2012-11-03 04:53:00
1:53 AM,37.9,28.0,68,30.05,10.0,NW,8.1,-,N/A,,Overcast,310,2012-11-03 05:53:00
2:53 AM,37.9,27.0,65,30.04,10.0,West,3.5,-,N/A,,Overcast,280,2012-11-03 06:53:00
3:53 AM,37.9,27.0,65,30.04,10.0,West,5.8,-,N/A,,Overcast,260,2012-11-03 07:53:00
4:53 AM,37.9,27.0,65,30.05,10.0,West,4.6,-,N/A,,Overcast,270,2012-11-03 08:53:00
5:53 AM,37.9,27.0,65,30.08,10.0,WNW,6.9,-,N/A,,Overcast,290,2012-11-03 09:53:00
6:53 AM,37.9,28.0,68,30.10,10.0,West,3.5,-,N/A,,Overcast,280,2012-11-03 10:53:00
7:53 AM,37.9,28.0,68,30.11,10.0,West,5.8,-,N/A,,Overcast,270,2012-11-03 11:53:00
8:53 AM,37.9,28.9,70,30.13,10.0,WNW,5.8,-,N/A,,Overcast,290,2012-11-03 12:53:00
9:53 AM,37.9,28.9,70,30.13,10.0,West,4.6,-,N/A,,Overcast,280,2012-11-03 13:53:00
10:53 AM,39.0,28.9,67,30.14,10.0,West,8.1,-,N/A,,Overcast,280,2012-11-03 14:53:00
11:53 AM,39.0,28.9,67,30.15,10.0,NW,9.2,-,N/A,,Overcast,310,2012-11-03 15:53:00
12:32 PM,39.2,28.4,65,30.14,10.0,NW,8.1,-,N/A,,Overcast,310,2012-11-03 16:32:00
12:53 PM,39.9,28.0,63,30.14,10.0,WNW,6.9,-,N/A,,Overcast,300,2012-11-03 16:53:00
1:53 PM,39.9,28.0,63,30.13,10.0,West,9.2,-,N/A,,Overcast,280,2012-11-03 17:53:00
2:53 PM,41.0,28.9,62,30.12,10.0,NW,5.8,-,N/A,,Overcast,310,2012-11-03 18:53:00
3:53 PM,41.0,28.9,62,30.12,10.0,WNW,5.8,-,N/A,,Overcast,300,2012-11-03 19:53:00
4:53 PM,41.0,28.9,62,30.11,10.0,West,5.8,-,N/A,,Overcast,260,2012-11-03 20:53:00
5:53 PM,39.9,28.9,65,30.10,10.0,WSW,3.5,-,N/A,,Overcast,240,2012-11-03 21:53:00
6:53 PM,39.9,28.9,65,30.11,10.0,Calm,Calm,-,N/A,,Overcast,0,2012-11-03 22:53:00
7:53 PM,39.9,28.9,65,30.12,10.0,Calm,Calm,-,N/A,,Overcast,0,2012-11-03 23:53:00
8:53 PM,39.9,30.0,68,30.13,10.0,Calm,Calm,-,N/A,,Overcast,0,2012-11-04 00:53:00
9:53 PM,39.0,30.9,73,30.12,10.0,Calm,Calm,-,N/A,,Overcast,0,2012-11-04 01:53:00
10:53 PM,37.9,32.0,79,30.12,10.0,Calm,Calm,-,N/A,,Overcast,0,2012-11-04 02:53:00
11:53 PM,37.9,32.0,79,30.12,10.0,Calm,Calm,-,N/A,,Overcast,0,2012-11-04 03:53:00